| time (UTC) | temp F | wind direction | speed MPH | gust MPH | rain 1hr in | rain 24hr in | rain mn in | humidity % | barometer mb |
| 20260503043538 | 81 | 239 | 2.0 | 4.0 | 0.00 | 0.00 | 0.00 | 68 | 1014.4 |
| 20260503042518 | 81 | 261 | 2.0 | 5.0 | 0.00 | 0.00 | 0.00 | 69 | 1014.4 |
| 20260503041538 | 81 | 232 | 3.0 | 6.0 | 0.00 | 0.00 | 0.00 | 68 | 1014.4 |
| 20260503040518 | 81 | 233 | 2.0 | 5.0 | 0.00 | 0.00 | 0.00 | 69 | 1014.4 |
| 20260503035518 | 81 | 249 | 1.0 | 4.0 | 0.00 | 0.00 | 0.00 | 68 | 1014.4 |
| 20260503034538 | 81 | 252 | 2.0 | 4.0 | 0.00 | 0.00 | 0.00 | 68 | 1014.4 |
| 20260503033518 | 81 | 247 | 2.0 | 5.0 | 0.00 | 0.00 | 0.00 | 67 | 1013.8 |
| 20260503032518 | 81 | 258 | 1.0 | 4.0 | 0.00 | 0.00 | 0.00 | 67 | 1013.4 |
| 20260503031518 | 82 | 248 | 2.0 | 6.0 | 0.00 | 0.00 | 0.00 | 66 | 1013.4 |
| 20260503030518 | 82 | 272 | 1.0 | 5.0 | 0.00 | 0.00 | 0.00 | 65 | 1013.4 |
| 20260503025518 | 82 | 257 | 2.0 | 4.0 | 0.00 | 0.00 | 0.00 | 65 | 1013.4 |
| 20260503024518 | 82 | 255 | 2.0 | 7.0 | 0.00 | 0.00 | 0.00 | 63 | 1013.4 |
| 20260503023518 | 82 | 246 | 3.0 | 6.0 | 0.00 | 0.00 | 0.00 | 63 | 1013.4 |
| 20260503022518 | 83 | 241 | 3.0 | 6.0 | 0.00 | 0.00 | 0.00 | 61 | 1013.4 |
| 20260503021518 | 83 | 272 | 3.0 | 5.0 | 0.00 | 0.00 | 0.00 | 60 | 1013.4 |
| 20260503020520 | 83 | 258 | 3.0 | 6.0 | 0.00 | 0.00 | 0.00 | 59 | 1013.4 |
| 20260503015558 | 83 | 256 | 2.0 | 7.0 | 0.00 | 0.00 | 0.00 | 58 | 1013.4 |
| 20260503014518 | 84 | 269 | 3.0 | 7.0 | 0.00 | 0.00 | 0.00 | 57 | 1013.4 |
| 20260503013520 | 84 | 268 | 1.0 | 4.0 | 0.00 | 0.00 | 0.00 | 55 | 1013.4 |
| 20260503012518 | 85 | 272 | 4.0 | 6.0 | 0.00 | 0.00 | 0.00 | 54 | 1013.4 |
| 20260503011558 | 85 | 255 | 4.0 | 6.0 | 0.00 | 0.00 | 0.00 | 51 | 1013.4 |
| 20260503010518 | 86 | 271 | 4.0 | 7.0 | 0.00 | 0.00 | 0.00 | 48 | 1012.8 |
| 20260503005518 | 86 | 265 | 3.0 | 6.0 | 0.00 | 0.00 | 0.00 | 46 | 1012.4 |
| 20260503004518 | 86 | 279 | 3.0 | 5.0 | 0.00 | 0.00 | 0.00 | 45 | 1012.4 |
| 20260503003538 | 87 | 272 | 3.0 | 6.0 | 0.00 | 0.00 | 0.00 | 44 | 1012.4 |
| 20260503002519 | 87 | 263 | 3.0 | 6.0 | 0.00 | 0.00 | 0.00 | 43 | 1012.4 |
| 20260503001518 | 88 | 262 | 4.0 | 10.0 | 0.00 | 0.00 | 0.00 | 42 | 1012.4 |
| 20260503000520 | 89 | 251 | 1.0 | 9.0 | 0.00 | 0.00 | 0.00 | 40 | 1012.4 |
| 20260502235518 | 89 | 257 | 3.0 | 7.0 | 0.00 | 0.00 | 0.00 | 38 | 1012.4 |
| 20260502234518 | 89 | 255 | 5.0 | 8.0 | 0.00 | 0.00 | 0.00 | 36 | 1011.4 |
| 20260502233518 | 90 | 242 | 4.0 | 7.0 | 0.00 | 0.00 | 0.00 | 33 | 1011.4 |
| 20260502232518 | 91 | 261 | 3.0 | 8.0 | 0.00 | 0.00 | 0.00 | 32 | 1011.4 |
| 20260502231518 | 92 | 258 | 4.0 | 7.0 | 0.00 | 0.00 | 0.00 | 30 | 1011.4 |
| 20260502230518 | 93 | 270 | 4.0 | 7.0 | 0.00 | 0.00 | 0.00 | 28 | 1011.4 |
| 20260502225518 | 93 | 261 | 2.0 | 6.0 | 0.00 | 0.00 | 0.00 | 27 | 1011.4 |
| 20260502224518 | 94 | 247 | 4.0 | 8.0 | 0.00 | 0.00 | 0.00 | 26 | 1010.4 |
| 20260502223518 | 96 | 261 | 4.0 | 8.0 | 0.00 | 0.00 | 0.00 | 26 | 1010.4 |
| 20260502222518 | 98 | 272 | 3.0 | 7.0 | 0.00 | 0.00 | 0.00 | 24 | 1010.4 |
| 20260502221518 | 98 | 248 | 5.0 | 9.0 | 0.00 | 0.00 | 0.00 | 23 | 1010.4 |
| 20260502220518 | 99 | 263 | 4.0 | 6.0 | 0.00 | 0.00 | 0.00 | 23 | 1010.4 |
| 20260502215538 | 99 | 258 | 5.0 | 9.0 | 0.00 | 0.00 | 0.00 | 22 | 1010.4 |
| 20260502214521 | 100 | 257 | 4.0 | 8.0 | 0.00 | 0.00 | 0.00 | 21 | 1010.4 |
| 20260502213517 | 100 | 227 | 4.0 | 6.0 | 0.00 | 0.00 | 0.00 | 21 | 1010.4 |
| 20260502212518 | 101 | 262 | 4.0 | 8.0 | 0.00 | 0.00 | 0.00 | 20 | 1010.4 |
| 20260502211518 | 101 | 273 | 3.0 | 9.0 | 0.00 | 0.00 | 0.00 | 20 | 1010.4 |
| 20260502210517 | 102 | 248 | 4.0 | 7.0 | 0.00 | 0.00 | 0.00 | 20 | 1010.4 |
| 20260502205518 | 100 | 262 | 5.0 | 8.0 | 0.00 | 0.00 | 0.00 | 21 | 1010.4 |
| 20260502204518 | 101 | 297 | 4.0 | 7.0 | 0.00 | 0.00 | 0.00 | 21 | 1010.4 |
| 20260502203558 | 100 | 238 | 5.0 | 7.0 | 0.00 | 0.00 | 0.00 | 21 | 1010.4 |
| 20260502202518 | 103 | 268 | 5.0 | 8.0 | 0.00 | 0.00 | 0.00 | 20 | 1010.4 |
| 20260502201517 | 102 | 244 | 5.0 | 8.0 | 0.00 | 0.00 | 0.00 | 22 | 1010.4 |
| 20260502200518 | 101 | 239 | 5.0 | 7.0 | 0.00 | 0.00 | 0.00 | 24 | 1010.4 |
| 20260502195517 | 101 | 234 | 6.0 | 9.0 | 0.00 | 0.00 | 0.00 | 22 | 1010.4 |
| 20260502194538 | 102 | 253 | 5.0 | 9.0 | 0.00 | 0.00 | 0.00 | 23 | 1010.4 |
| 20260502193517 | 102 | 222 | 5.0 | 9.0 | 0.00 | 0.00 | 0.00 | 25 | 1010.4 |
| 20260502192518 | 101 | 251 | 5.0 | 12.0 | 0.00 | 0.00 | 0.00 | 25 | 1010.4 |
| 20260502191518 | 101 | 232 | 6.0 | 12.0 | 0.00 | 0.00 | 0.00 | 25 | 1011.4 |
| 20260502190518 | 101 | 255 | 5.0 | 11.0 | 0.00 | 0.00 | 0.00 | 25 | 1011.4 |
| 20260502185538 | 101 | 248 | 5.0 | 11.0 | 0.00 | 0.00 | 0.00 | 24 | 1011.4 |
| 20260502184538 | 101 | 243 | 6.0 | 13.0 | 0.00 | 0.00 | 0.00 | 25 | 1011.4 |
| 20260502183517 | 101 | 232 | 5.0 | 10.0 | 0.00 | 0.00 | 0.00 | 25 | 1011.4 |
| 20260502182518 | 100 | 263 | 5.0 | 11.0 | 0.00 | 0.00 | 0.00 | 26 | 1011.4 |
| 20260502181520 | 99 | 254 | 5.0 | 8.0 | 0.00 | 0.00 | 0.00 | 29 | 1011.4 |
| 20260502180517 | 99 | 231 | 4.0 | 9.0 | 0.00 | 0.00 | 0.00 | 31 | 1011.4 |
| 20260502170517 | 98 | 179 | 6.0 | 12.0 | 0.00 | 0.00 | 0.00 | 36 | 1011.4 |
| 20260502163540 | 96 | 226 | 5.0 | 10.0 | 0.00 | 0.00 | 0.00 | 39 | 1011.9 |
| 20260502162518 | 98 | 185 | 5.0 | 7.0 | 0.00 | 0.00 | 0.00 | 37 | 1012.4 |
| 20260502161517 | 97 | 218 | 5.0 | 9.0 | 0.00 | 0.00 | 0.00 | 38 | 1012.4 |
| 20260502160518 | 97 | 223 | 5.0 | 9.0 | 0.00 | 0.00 | 0.00 | 38 | 1012.4 |
| 20260502151517 | 94 | 224 | 5.0 | 8.0 | 0.00 | 0.00 | 0.00 | 40 | 1012.4 |
| 20260502150537 | 94 | 193 | 5.0 | 8.0 | 0.00 | 0.00 | 0.00 | 39 | 1012.4 |
| 20260502130518 | 87 | 170 | 5.0 | 9.0 | 0.00 | 0.00 | 0.00 | 62 | 1012.4 |
| 20260502123517 | 85 | 196 | 4.0 | 8.0 | 0.00 | 0.00 | 0.00 | 68 | 1012.4 |
| 20260502122517 | 84 | 164 | 2.0 | 5.0 | 0.00 | 0.00 | 0.00 | 71 | 1012.4 |
| 20260502121517 | 82 | 183 | 2.0 | 4.0 | 0.00 | 0.00 | 0.00 | 75 | 1012.4 |
| 20260502120558 | 80 | 181 | 1.0 | 4.0 | 0.00 | 0.00 | 0.00 | 76 | 1012.4 |
| 20260502115517 | 80 | 149 | 1.0 | 4.0 | 0.00 | 0.00 | 0.00 | 78 | 1012.4 |
| 20260502114517 | 78 | 0.0 | 4.0 | 0.00 | 0.00 | 0.00 | 82 | 1012.4 | |
| 20260502113517 | 77 | 0.0 | 3.0 | 0.00 | 0.00 | 0.00 | 82 | 1012.4 | |
| 20260502112518 | 76 | 0.0 | 0.0 | 0.00 | 0.00 | 0.00 | 82 | 1012.4 | |
| 20260502111537 | 75 | 0.0 | 0.0 | 0.00 | 0.00 | 0.00 | 82 | 1012.4 | |
| 20260502110520 | 75 | 0.0 | 0.0 | 0.00 | 0.00 | 0.00 | 81 | 1012.4 | |
| 20260502105517 | 75 | 0.0 | 0.0 | 0.00 | 0.00 | 0.00 | 80 | 1012.4 | |
| 20260502104517 | 75 | 0.0 | 0.0 | 0.00 | 0.00 | 0.00 | 80 | 1012.4 | |
| 20260502103518 | 75 | 0.0 | 0.0 | 0.00 | 0.00 | 0.00 | 80 | 1012.4 | |
| 20260502102517 | 75 | 0.0 | 0.0 | 0.00 | 0.00 | 0.00 | 80 | 1012.4 | |
| 20260502101517 | 75 | 0.0 | 0.0 | 0.00 | 0.00 | 0.00 | 80 | 1012.4 | |
| 20260502100518 | 76 | 0.0 | 0.0 | 0.00 | 0.00 | 0.00 | 80 | 1012.4 | |
| 20260502091517 | 75 | 0.0 | 0.0 | 0.00 | 0.00 | 0.00 | 79 | 1012.4 | |
| 20260502090537 | 75 | 0.0 | 0.0 | 0.00 | 0.00 | 0.00 | 79 | 1012.4 | |
| 20260502070517 | 75 | 0.0 | 0.0 | 0.00 | 0.00 | 0.00 | 73 | 1012.4 | |
| 20260502065517 | 75 | 0.0 | 0.0 | 0.00 | 0.00 | 0.00 | 73 | 1012.4 | |
| 20260502064517 | 75 | 0.0 | 0.0 | 0.00 | 0.00 | 0.00 | 72 | 1012.4 | |
| 20260502063517 | 75 | 0.0 | 0.0 | 0.00 | 0.00 | 0.00 | 71 | 1012.4 | |
| 20260502062517 | 75 | 0.0 | 0.0 | 0.00 | 0.00 | 0.00 | 72 | 1012.4 | |
| 20260502060517 | 76 | 0.0 | 0.0 | 0.00 | 0.00 | 0.00 | 71 | 1012.4 | |
| 20260502055517 | 76 | 0.0 | 0.0 | 0.00 | 0.00 | 0.00 | 71 | 1012.4 | |
| 20260502054537 | 76 | 0.0 | 0.0 | 0.00 | 0.00 | 0.00 | 69 | 1012.4 | |
| 20260502053517 | 76 | 0.0 | 0.0 | 0.00 | 0.00 | 0.00 | 69 | 1012.4 | |
| 20260502052517 | 76 | 0.0 | 0.0 | 0.00 | 0.00 | 0.00 | 68 | 1012.4 | |
| 20260502051517 | 77 | 0.0 | 0.0 | 0.00 | 0.00 | 0.00 | 68 | 1012.4 | |
| 20260502050517 | 77 | 0.0 | 0.0 | 0.00 | 0.00 | 0.00 | 68 | 1012.4 | |
| 20260502045517 | 77 | 0.0 | 0.0 | 0.00 | 0.00 | 0.00 | 67 | 1012.4 | |
| 20260502044517 | 77 | 0.0 | 0.0 | 0.00 | 0.00 | 0.00 | 67 | 1012.4 |